Regional Weather Roundup
Issued by NWS State College, PA

Home | Current Version | Previous Version | Graphics & Text | Print | Product List | Glossary Off
Versions: 1 2 3 4 5 6 7 8 9 10 11 12 13 14 15 16 17 18 19 20 21 22 23 24 25 26 27 28 29 30 31 32 33 34 35 36 37 38 39 40 41 42 43 44 45 46 47 48 49 50

000
ASUS41 KCTP 252103
RWRCTP

REGIONAL WEATHER ROUNDUP
NATIONAL WEATHER SERVICE STATE COLLEGE PA
500 PM EDT FRI JUL 25 2014

Note: "fair" indicates few or no clouds below 12,000 feet with no
significant weather and/or obstructions to visibility.

* = STATION THAT DOES NOT REPORT PRECIPITATION /E.G. RAIN...SNOW...ETC/
    THUNDER OR FOG.

PAZ002>004-007>009-013>016-020>023-029>032-252200-
WESTERN PENNSYLVANIA

CITY           SKY/WX    TMP DP  RH WIND       PRES   REMARKS
ERIE           SUNNY     73  56  54 W10       30.03F
MEADVILLE      MOSUNNY   72  52  49 VRB3      30.04F
FRANKLIN*      SUNNY     73  50  43 S5        30.05F
NEW CASTLE       N/A     78  49  36 W7        30.04S
BEAVER COUNTY  SUNNY     77  48  36 W3        30.04F
BUTLER*        SUNNY     75  52  43 NW5       30.05S
PITTSBURGH INT MOSUNNY   78  44  29 VRB3      30.04S
PITTSBURGH     SUNNY     78  44  29 W6        30.02F
INDIANA*       SUNNY     77  50  38 SW5       30.06F
LATROBE        SUNNY     75  52  43 W7        30.03F
WASHINGTON CO* MOSUNNY   77  54  44 S3        30.04F
$$

PAZ004>006-010>012-017>019-024>028-033>037-041-042-045-046-049>053-252200-
CENTRAL PENNSYLVANIA

CITY           SKY/WX    TMP DP  RH WIND       PRES   REMARKS
BRADFORD       SUNNY     74  45  35 W10       30.04F
DUBOIS         SUNNY     74  48  39 SW12      30.03F
CLEARFIELD     MOSUNNY   76  50  40 CALM      30.03F
JOHNSTOWN      SUNNY     72  46  39 SW9       30.05F
ALTOONA        SUNNY     77  54  44 S3        30.03F
STATE COLLEGE  SUNNY     75  50  41 CALM      30.02F
WILLIAMSPORT   SUNNY     80  46  30 W7        29.98F
SELINSGROVE    SUNNY     79  51  37 W5        30.01S
FT INDIANTOWN  SUNNY     81  51  35 VRB5      30.00S
CAPITAL CITY   SUNNY     79  47  32 VRB3      30.00F
HARRISBURG     MOSUNNY   80  42  25 W3        29.99F
YORK           SUNNY     78  47  33 CALM      30.01S
$$

PAZ038>040-043-044-047-048-054-055-060>062-067>071-252200-
EASTERN PENNSYLVANIA

CITY           SKY/WX    TMP DP  RH WIND       PRES   REMARKS
SCRANTON       SUNNY     81  46  29 VRB7      30.00S
MOUNT POCONO   SUNNY     73  54  51 SE7       30.04S
ALLENTOWN      SUNNY     81  51  35 W5        29.98F
QUAKERTOWN*    CLEAR     81  55  41 W3        30.00S
READING        SUNNY     81  54  39 W5        29.99R
LANCASTER      SUNNY     78  52  40 W8        30.00S
COATESVILLE    CLEAR     77  54  44 W5        30.02S
POTTSTOWN      SUNNY     77  53  43 CALM      30.00S
BLUE BELL      SUNNY     82  54  36 S5        29.97S
DOYLESTOWN     SUNNY     78  54  43 S5        29.97F
WILLOW GROVE   NOT AVBL
NORTH PHILA    SUNNY     83  51  33 W5        29.98F
PHILADELPHIA   MOSUNNY   83  52  34 VRB3      29.97F
$$


USA.gov is the U.S. government's official web portal to all federal, state and local government web resources and services.